Terminal Aerodrome Forecast
Issued by NWS

Home | Current Version | Previous Version | Text Only | Print | Product List | Glossary On
Versions: 1 2 3 4 5 6 7 8 9 10 11 12 13 14 15 16 17 18 19 20 21 22 23 24 25 26
000
FTUS45 KSLC 301739
TAFSGU
TAF
KSGU 301739Z 3018/0118 VRB04KT P6SM SCT200
     FM302100 24007KT P6SM FEW120 SCT200
     FM010200 VRB04KT P6SM SCT100 SCT120
      AMD LTD TO CLD VIS AND WIND=

USA.gov is the U.S. government's official web portal to all federal, state and local government web resources and services.